Regional Weather Roundup
Issued by NWS

Home | Current Version | Previous Version | Text Only | Print | Product List | Glossary On
Versions: 1 2 3 4 5 6 7 8 9 10 11 12 13 14 15 16 17 18 19 20 21 22 23 24 25 26 27
000
ASUS42 KTBW 200216
RWRFL
FLORIDA REGIONAL WEATHER ROUNDUP
NATIONAL WEATHER SERVICE TAMPA BAY RUSKIN FL
900 PM EST SUN FEB 19 2017

NOTE: "FAIR" INDICATES FEW OR NO CLOUDS BELOW 12,000 FEET WITH NO
SIGNIFICANT WEATHER AND/OR OBSTRUCTIONS TO VISIBILITY.

FLZ001>010-012>015-112-114-115-200300-
PANHANDLE FLORIDA

CITY           SKY/WX    TMP DP  RH WIND       PRES   REMARKS
PENSACOLA      CLEAR     66  61  84 SW5       30.07S
PENSACOLA NAS  CLEAR     62  61  96 CALM      30.07S
MILTON NAS     LGT RAIN  60  57  89 CALM      30.08S
CRESTVIEW      CLEAR     64  58  80 CALM      30.10R
DUKE FIELD     FAIR      62  59  88 S5        30.08R
VALPARAISO     PTCLDY    64  62  92 CALM      30.09R
MARY ESTHER    CLEAR     66  56  71 CALM      30.07S
PANAMA CITY    FAIR      64  59  83 CALM      30.08R
TYNDALL AFB    CLEAR     65  62  90 CALM      30.09R
APALACHICOLA   CLEAR     65  64  97 CALM      30.10R

STATION/POSITION SKY/WX   TEMP    WIND        PRES    WAVE   SWELL
                          AIR SEA DIR/SP/G            HT/PER HT/PER
                          (F)     (DEG/KT/KT) (MB)    (FT/S) (FT/S)
30.1N   87.6W              68 68  150/  8/ 10 1018.0F   2/ 6   2/ 6
28.8N   86.0W              70 71              1019.1R   2/ 6   2/ 6
PANAMA CITY BEAC           68     240/  5/  5 1019.1R
TOWER C                    66     210/  5/  6 1020.0R
28.5N   84.5W              68 70   CALM  /  2 1019.1R   2/ 6   2/ 6

$$
FLZ011-016>038-118-127-128-134-139-239-200300-
NORTH FLORIDA

CITY           SKY/WX    TMP DP  RH WIND       PRES   REMARKS
MARIANNA       CLEAR     62  57  83 CALM      30.08R
TALLAHASSEE    PTCLDY    64  60  87 SW7       30.09R
PERRY          MOCLDY    64  61  89 W3        30.10R
CROSS CITY     CLEAR     63  59  88 SW3       30.09R
LAKE CITY      FAIR      59  55  88 CALM      30.08R
GAINESVILLE    CLEAR     60  52  74 CALM      30.08R
WILLISTON      CLEAR     64  63  94 CALM      30.08R
PALATKA        FAIR      63  59  88 CALM      30.09R
MAYPORT NAS    MOCLDY    62  59  90 S5        30.08R
JACKSONVILLE   PTCLDY    63  59  87 SE3       30.07R
FERNANDINA BEA FAIR      63  61  94 CALM      30.07R
ST AUGUSTINE   CLEAR     63  58  83 CALM      30.09R

STATION/POSITION SKY/WX   TEMP    WIND        PRES    WAVE   SWELL
                          AIR SEA DIR/SP/G            HT/PER HT/PER
                          (F)     (DEG/KT/KT) (MB)    (FT/S) (FT/S)
SHELL POINT      NOT AVBL
KEATON BEACH               65     290/ 10/ 11 1018.9R
CEDAR KEY                  65     290/  4/  5 1019.3R
FERNANDINA                 63 66  140/  2/  4 1019.1R
30.7N   81.3W                 64                N/A     1
MAYPORT                    64 66  200/  4/  5 1018.8R
31.4N   80.9W              63 62  200/  6/  6 1017.8    1
ST AUGUSTINE               66 67  160/  4/  5 1019.5R

$$
FLZ040-043>046-052-053-057-058-063-144-200300-
INTERIOR CENTRAL FLORIDA

CITY           SKY/WX    TMP DP  RH WIND       PRES   REMARKS
OCALA          CLEAR     64  57  77 CALM      30.09R
THE VILLAGES     N/A     66  63  88 MISG      29.99R
LEESBURG       CLEAR     67  59  75 CALM      30.09R
SANFORD        CLEAR     65  59  81 E3        30.08R
ORLANDO EXEC   CLEAR     65  59  81 E5        30.08R
ORLANDO INTL   CLEAR     67  59  75 E6        30.08R
KISSIMMEE      CLEAR     67  61  81 E6        30.09R
WINTER HAVEN   CLEAR     67  58  72 W5        30.08R
LAKELAND       CLEAR     66  54  63 CALM      30.08R
BARTOW         FAIR      64  55  72 CALM      30.08R
OKEECHOBEE     CLEAR     63  61  94 NE3       30.08R

$$
FLZ041-047-054-059-064-141-147-200300-
EAST CENTRAL FLORIDA

CITY           SKY/WX    TMP DP  RH WIND       PRES   REMARKS
DAYTONA BEACH  CLEAR     61  60  97 CALM      30.08R
DELAND         CLEAR     63  59  88 CALM      30.08R
NEW SMYRNA BEA CLEAR     66  63  88 E6        30.08R
JFK SPACE CTR  CLEAR     62  60  93 E5        30.07R
TITUSVILLE     CLEAR     66  64  94 VRB6      30.08R
CAPE CANAVERAL CLEAR     65  60  84 NE6       30.06S
PATRICK AFB    CLEAR     68  62  79 NE5       30.07R
MELBOURNE      CLEAR     67  61  81 NE5       30.07R
VERO BEACH     CLEAR     68  61  78 NE6       30.08R
FT PIERCE      CLEAR     65  61  87 NE3       30.07R
STUART         CLEAR     72  64  78 N3        30.08R

STATION/POSITION SKY/WX   TEMP    WIND        PRES    WAVE   SWELL
                          AIR SEA DIR/SP/G            HT/PER HT/PER
                          (F)     (DEG/KT/KT) (MB)    (FT/S) (FT/S)
TRIDENT PIER               64 71   30/  6/  7 1019.3R
28.4N   80.5W                 71                N/A     1/10
27.5N   80.2W                 72                N/A     3/ 5

$$
FLZ050-056-061-142-242-148-248-149-249-151-251-155-255-
160-260-200300-
WEST CENTRAL FLORIDA

CITY           SKY/WX    TMP DP  RH WIND       PRES   REMARKS
CRYSTAL RIVER  FAIR      61  61 100 CALM      30.09R
INVERNESS      FAIR      63  63 100 CALM      30.09R
BROOKSVILLE    FOG       64  64 100 CALM      30.10R VSB 1/4
CLEARWATER AIR CLOUDY    61  61 100 NW5       30.09R FOG
ST PETE CLEARW CLEAR     62  60  93 NW6       30.09R
TAMPA INTL     CLEAR     64  61  90 NW6       30.09R
TAMPA EXEC     CLEAR     63  57  82 CALM      30.09R
PLANT CITY     CLEAR     68  59  73 NW5       30.10R
MACDILL AFB    CLEAR     64  64 100 N6        30.08R
PETER O KNIGHT CLEAR     68  63  83 CALM      30.09R
ST PETERSBURG  CLEAR     66  61  84 N5        30.07R
SARASOTA       CLEAR     64  58  80 NW5       30.07R
VENICE         FAIR      70  66  88 NW7       30.09R

STATION/POSITION SKY/WX   TEMP    WIND        PRES    WAVE   SWELL
                          AIR SEA DIR/SP/G            HT/PER HT/PER
                          (F)     (DEG/KT/KT) (MB)    (FT/S) (FT/S)
27.3N   84.2W                 72                N/A     2/ 6
CLEARWATER BEACH           62 75  320/  3/  5 1019.2R
MIDDLE TAMPA BAY           67     350/  6/  7 1018.8R
VENICE                     69 70  330/ 10/ 11 1018.4R

$$
FLZ066-069-070-075>078-162-262-165-265-200300-
SOUTHWEST FLORIDA AND KEYS

CITY           SKY/WX    TMP DP  RH WIND       PRES   REMARKS
PUNTA GORDA    CLEAR     68  61  78 W5        30.09R
FT MYERS       CLEAR     70  67  90 W6        30.07R
SOUTHWEST INTL CLEAR     70  65  84 NW5       30.08R
NAPLES         CLEAR     71  69  93 NW8       30.07R
MARCO ISLAND   CLEAR     70  68  94 W6        30.08R
MARATHON       PTCLDY    76  73  91 NW8       30.06R
KEY WEST NAS   PTCLDY    72  71  97 N10       30.07R
KEY WEST INTL  CLEAR     76  73  91 N7        30.07R

STATION/POSITION SKY/WX   TEMP    WIND        PRES    WAVE   SWELL
                          AIR SEA DIR/SP/G            HT/PER HT/PER
                          (F)     (DEG/KT/KT) (MB)    (FT/S) (FT/S)
NAPLES                        75              1018.2R
26.0N   85.6W              75 74   80/ 10/ 12 1018.7R   2/ 6   2/ 6
DRY TORTUGAS               75      20/  7/  7 1018.5R
SAND KEY                   76                 1018.6R
LONG KEY                   75 78  340/ 13/ 14 1018.2R

$$
FLZ067-068-071>074-168-172>174-200300-
SOUTHEAST FLORIDA

CITY           SKY/WX    TMP DP  RH WIND       PRES   REMARKS
W PALM BEACH   PTCLDY    73  60  63 NE7       30.07R
BOCA RATON     MOCLDY    75  66  73 NE13      30.06R
FT LAUDER-EXEC MOCLDY    76  66  71 NE7       30.06R
FT LAUDERDALE  MOCLDY    74  68  81 NE5       30.05R
POMPANO BEACH  CLOUDY    76  67  73 NE10      30.06R
PEMBROKE PINES PTCLDY    74  67  78 NE6       30.07R
OPA LOCKA      PTCLDY    76  68  76 N5        30.07R
MIAMI          PTCLDY    73  69  87 NE6       30.07R
WEST KENDALL   CLEAR     74  66  76 NW3       30.06R
HOMESTEAD      CLEAR     74  70  88 NW6       30.06R

STATION/POSITION SKY/WX   TEMP    WIND        PRES    WAVE   SWELL
                          AIR SEA DIR/SP/G            HT/PER HT/PER
                          (F)     (DEG/KT/KT) (MB)    (FT/S) (FT/S)
PORT EVERGLADES            75      40/  6/ 12 1017.7R
VIRGINIA KEY               76 81   30/  4/  6 1018.2R
LAKE WORTH                 74      30/ 13/ 16 1018.7R
FOWEY ROCKS                77 75   30/ 15/ 16 1018.4R

$$





USA.gov is the U.S. government's official web portal to all federal, state and local government web resources and services.